Regional Weather Roundup
Issued by NWS Bismarck, ND

Current Version | Previous Version | Text Only | Print | Product List | Glossary On
Versions: 1 2 3 4 5 6 7 8 9 10 11 12 13 14 15 16 17 18 19 20 21 22 23 24 25 26 27 28 29 30 31 32 33 34 35 36 37 38 39 40 41 42 43 44 45 46 47 48 49 50
000
ASUS43 KBIS 132210
RWRBIS

NWR BROADCAST TEXT
NATIONAL WEATHER SERVICE BISMARCK ND
400 PM CST SAT FEB 13 2016

NOTE: "FAIR" INDICATES FEW OR NO CLOUDS BELOW 12,000 FEET WITH NO
SIGNIFICANT WEATHER AND/OR OBSTRUCTIONS TO VISIBILITY.


CITY           SKY/WX    TMP DP  RH WIND       PRES   REMARKS
WILLISTON      HVY SNOW  20  17  88 SE8       29.81S VSB 1/4 WCI  10
MINOT          LGT SNOW  18   8  65 SE13G23   29.92F WCI   5
MINOT AFB      CLOUDY    17  11  76 SE16      29.91F WCI   2
BISMARCK       LGT SNOW  18  10  71 S10       30.00R WCI   6
DICKINSON      CLOUDY    20  16  84 S17       29.80S WCI   5
GARRISON         N/A     14   9  80 SE18      29.89F WCI  -3
HETTINGER ARPT CLOUDY    23  20  88 E7        29.85R WCI  15
JAMESTOWN      CLOUDY     9   1  70 SE21      30.08F WCI -11
BEACH          LGT SNOW  32  32 100 SW10      29.82S
CARRINGTON       N/A      9   5  85 SE32      30.05F WCI -15
HAZEN          SNOW      16  10  79 SE10      29.93F VSB 1/2 WCI   3
LINTON         CLOUDY    14  10  85 SE25G32   29.97F FOG     WCI  -5
MANDAN         CLOUDY    14  10  85 SE10      29.97R WCI   1
OAKES          CLOUDY    14   1  57 SE17G23   30.15F WCI  -3
RUGBY          CLOUDY     9   1  72 SE21G28   30.01F WCI -11
STANLEY        FLURRIES  14  12  92 S16       29.85F WCI  -2
TIOGA          LGT SNOW  16  16 100 S18       29.85F WCI  -1
WATFORD CITY   LGT SNOW  18  16  93 SE8       29.81F WCI   7
$$

CITY           SKY/WX    TMP DP  RH WIND       PRES   REMARKS
GRAND FORKS    CLOUDY     9   0  67 SE18      30.25F WCI -10
GRAND FORKS AF CLOUDY    10  -1  62 S16       30.22F WCI  -8
DEVILS LAKE    CLOUDY     7   0  73 SE21      30.09F WCI -13
FARGO          CLOUDY    13   0  56 SE15G25   30.27F WCI  -3
CAVALIER       CLOUDY     7  -2  66 SE15      30.23F WCI -11
GRAFTON        MOCLDY     7   0  72 SE21      30.26F WCI -13
GWINNER        CLOUDY    10   5  79 SE23      30.19F WCI -10
LANGDON        CLOUDY     7  -2  66 SE26      30.10F WCI -16
ROLLA          CLOUDY     5  -2  72 S24       30.01F WCI -17
WALHALLA       FAIR       7   0  72 SE18      30.20F WCI -12
$$

CITY           SKY/WX    TMP DP  RH WIND       PRES   REMARKS
ABERDEEN       CLOUDY    16   5  62 S23G31    30.14F WCI  -2
MOBRIDGE       CLOUDY    21  16  81 SE18G31   29.91F WCI   6
BUFFALO          N/A     31  27  85 NW5       29.73S
RAPID CITY     SUNNY     51  32  48 SE14      29.73F
GLASGOW        CLOUDY    32  29  88 SW5       29.78S
SIDNEY         CLOUDY    30  27  86 S7        29.79S
WOLF POINT     CLOUDY    31  27  85 SW6       29.79
GLENDIVE       CLOUDY    36  34  93 S12       29.82R
MILES CITY     CLOUDY    41  40  96 W12       29.84F
BAKER          LGT SNOW  35  31  85 W8        29.83R FOG
$$

CITY           SKY/WX    TMP DP  RH WIND       PRES   REMARKS
BILLINGS       PTSUNNY   50  16  25 W35G45    29.92F
GREAT FALLS    MOSUNNY   49  19  30 W29G35    29.96R
REGINA         CLOUDY    21  16  79 SE20      29.75S WCI   6
ESTEVAN        LGT SNOW  18  10  73 SE15G21   29.82F DRFTSNOWWCI   3
$$




USA.gov is the U.S. government's official web portal to all federal, state and local government web resources and services.